Location: Wapato
(46.4478°N, 120.4212°W)
Time: 10:07:39
(UTC+00:00)

Injun/Solrad 3 - Pass Details

Date: 12 May 2026
Orbit: 867 x 989 km, 66.8° (Epoch: 10 June)

Event Time Altitude Azimuth Distance (km) Brightness Sun altitude
Rises 23:37:18 0° 191° (SSW) 3,497 11.2 37.2°
Reaches altitude 10° 23:39:50 10° 186° (S) 2,578 10.5 36.8°
Maximum altitude 23:45:31 47° 114° (ESE) 1,205 8.6 35.8°
Drops below altitude 10° 23:51:26 10° 43° (NE) 2,676 10.0 34.8°
Sets 23:54:07 0° 38° (NE) 3,644 10.6 34.4°
